Location: Beuvrequen
(50.8014°N, 1.6652°E)
Time: 22:06:59
(UTC+00:00)

Okean-O - Pass Details

Date: 16 October 2021
Orbit: 639 x 640 km, 98.2° (Epoch: 04 December)

Event Time Altitude Azimuth Distance (km) Brightness Sun altitude
Exits shadow 18:07:41 - 132° (SE) 2,192 4.9 -11.6°
Reaches altitude 10° 18:08:07 10° 130° (SE) 2,032 4.8 -11.7°
Maximum altitude 18:12:06 34° 65° (ENE) 1,059 3.3 -12.3°
Drops below altitude 10° 18:16:07 10° 1° (N) 2,046 5.2 -13.0°
Sets 18:18:29 0° 353° (N) 2,960 6.2 -13.4°
